Regional Weather Roundup
Issued by NWS State College, PA

Home | Current Version | Previous Version | Text Only | Print | Product List | Glossary On
Versions: 1 2 3 4 5 6 7 8 9 10 11 12 13 14 15 16 17 18 19 20 21 22 23 24 25 26 27 28 29 30 31 32 33 34 35 36 37 38 39 40 41 42 43 44 45 46 47 48 49 50
000
ASUS41 KCTP 240510
RWRCTP

REGIONAL WEATHER ROUNDUP
NATIONAL WEATHER SERVICE STATE COLLEGE PA
100 AM EDT THU JUL 24 2014

Note: "fair" indicates few or no clouds below 12,000 feet with no
significant weather and/or obstructions to visibility.

* = STATION THAT DOES NOT REPORT PRECIPITATION /E.G. RAIN...SNOW...ETC/
    THUNDER OR FOG.

PAZ002>004-007>009-013>016-020>023-029>032-240600-
WESTERN PENNSYLVANIA

CITY           SKY/WX    TMP DP  RH WIND       PRES   REMARKS
ERIE           MOCLDY    65  54  67 NE9       30.01F
MEADVILLE      MOCLDY    61  56  83 CALM      30.03S
FRANKLIN*      CLOUDY    61  55  82 N3        30.03S
NEW CASTLE       N/A     61  59  93 CALM      30.03R
BEAVER COUNTY  NOT AVBL
BUTLER*        CLOUDY    63  59  88 W3        30.03R
PITTSBURGH INT CLOUDY    65  60  84 NW10      30.02R
PITTSBURGH     MOCLDY    65  59  81 VRB6      29.99S
INDIANA*       CLOUDY    64  63  94 N5        30.03S
LATROBE        CLOUDY    66  64  94 CALM      30.00S
WASHINGTON CO* CLOUDY    64  57  77 N7        30.02S
$$

PAZ004>006-010>012-017>019-024>028-033>037-041-042-045-046-049>053-240600-
CENTRAL PENNSYLVANIA

CITY           SKY/WX    TMP DP  RH WIND       PRES   REMARKS
BRADFORD       CLOUDY    59  54  83 N7        30.02R
DUBOIS         CLOUDY    63  59  87 N7        30.00R
CLEARFIELD     CLOUDY    64  61  90 NW3       29.99R
JOHNSTOWN      CLOUDY    63  59  87 NW8       30.01R
ALTOONA        CLOUDY    69  61  75 VRB3      29.97S
STATE COLLEGE  CLOUDY    67  62  83 N5        29.95S
WILLIAMSPORT   CLOUDY    69  58  67 NW5       29.92R
SELINSGROVE    CLOUDY    73  62  68 N9G18     29.91S
FT INDIANTOWN  CLOUDY    74  67  79 N6        29.89R
CAPITAL CITY   CLOUDY    77  64  64 N8        29.88R
HARRISBURG     MOCLDY    76  67  73 N10       29.87R
YORK           PTCLDY    70  68  93 CALM      29.88R
$$

PAZ038>040-043-044-047-048-054-055-060>062-067>071-240600-
EASTERN PENNSYLVANIA

CITY           SKY/WX    TMP DP  RH WIND       PRES   REMARKS
SCRANTON       CLOUDY    70  62  76 NW9       29.91S
MOUNT POCONO   MOCLDY    65  60  84 NW10G18   29.92S
ALLENTOWN      CLEAR     69  65  86 CALM      29.87S
QUAKERTOWN*    PTCLDY    70  68  94 W3        29.87F
READING        MOCLDY    73  70  90 CALM      29.86S
LANCASTER      MOCLDY    69  68  96 E3        29.87S FOG
COATESVILLE    CLEAR     68  68 100 N3        29.88S
POTTSTOWN      PTCLDY    72  68  87 N6        29.87S
BLUE BELL      PTCLDY    72  70  94 CALM      29.85S
DOYLESTOWN     PTCLDY    69  69 100 CALM      29.85R
WILLOW GROVE   NOT AVBL
NORTH PHILA    MOCLDY    74  69  85 CALM      29.86S
PHILADELPHIA   CLOUDY    74  67  78 CALM      29.85R
$$



USA.gov is the U.S. government's official web portal to all federal, state and local government web resources and services.